Location: Kelshall
(52.0000°N, 0.0500°W)
Time: 22:01:37
(UTC+00:00)

Cosmos 1544 - Pass Details

Date: 18 September 2020
Orbit: 471 x 491 km, 82.5° (Epoch: 20 October)

Event Time Altitude Azimuth Distance (km) Brightness Sun altitude
Rises 18:55:45 0° 198° (SSW) 2,556 6.8 -8.3°
Reaches altitude 10° 18:57:53 10° 202° (SSW) 1,677 5.9 -8.6°
Maximum altitude 19:01:30 59° 283° (WNW) 570 3.8 -9.1°
Drops below altitude 10° 19:05:08 10° 4° (N) 1,681 5.9 -9.7°
Sets 19:07:16 0° 8° (N) 2,563 6.8 -10.0°
